Regional Weather Roundup
Issued by NWS

Home | Current Version | Previous Version | Text Only | Print | Product List | Glossary Off
Versions: 1 2 3 4 5 6 7 8 9 10 11 12 13 14 15 16 17 18 19 20 21 22 23 24 25 26 27 28 29 30 31 32 33 34 35 36 37 38 39 40 41 42 43 44 45 46 47 48 49 50

000
ASUS43 KLMK 240810
RWRKY
KENTUCKY REGIONAL WEATHER ROUNDUP
NATIONAL WEATHER SERVICE LOUISVILLE KY
300 AM EST TUE JAN 24 2017

NOTE "FAIR" INDICATES FEW OR NO CLOUDS BELOW 12,000 FEET
WITH NO SIGNIFICANT WEATHER AND/OR OBSTRUCTIONS TO VISIBILITY.

KYZ001>023-026-027-061>063-070>075-240900-
WESTERN AND SOUTH CENTRAL KENTUCKY

CITY           SKY/WX    TMP DP  RH WIND       PRES   REMARKS
PADUCAH        CLOUDY    42  33  70 NW6       29.87S
HENDERSON      CLOUDY    41  32  70 NW7       29.85R
OWENSBORO      CLOUDY    41  35  79 NW9       29.85R
HOPKINSVILLE   CLOUDY    41  35  79 NW9       29.85R
BOWLING GREEN  CLOUDY    42  35  76 VRB6      29.83S
GLASGOW        CLOUDY    39  37  91 W6        29.81R
$$

KYZ024-025-028>034-038-045-046-053-240900-
NORTH CENTRAL KENTUCKY

CITY           SKY/WX    TMP DP  RH WIND       PRES   REMARKS
LOUISVILLE/SDF CLOUDY    42  37  82 W14       29.80R
LOUISVILLE/LOU CLOUDY    42  36  79 W14       29.80R
FORT KNOX      CLOUDY    38  37  96 NW8       29.78S WCI  33
$$

KYZ035>037-039>044-047>052-055>060-089>105-240900-
NORTHEAST KENTUCKY

CITY           SKY/WX    TMP DP  RH WIND       PRES   REMARKS
LEXINGTON      CLOUDY    41  38  89 W9G18     29.76R
COVINGTON      CLOUDY    41  39  93 W15       29.74R
FRANKFORT      CLOUDY    41  37  86 VRB7      29.75R
$$

KYZ054-064>069-076>088-106>120-240900-
SOUTHEAST KENTUCKY

CITY           SKY/WX    TMP DP  RH WIND       PRES   REMARKS
JACKSON        CLOUDY    42  40  92 W7        29.69R FOG
LONDON         CLOUDY    40  32  73 W8        29.75R HAZE    WCI  34
SOMERSET       CLOUDY    37  37 100 W10       29.80R WCI  30
MIDDLESBORO    CLOUDY    42  40  93 W8        29.75R FOG
MONTICELLO     CLOUDY    39  38  96 W9        29.82R FOG     WCI  33
$$




USA.gov is the U.S. government's official web portal to all federal, state and local government web resources and services.